STARLINK-30486, 58009

Orbit data source: Space-Track

STARLINK-30486, 58009 is a payload satellite owned by SpaceX/Seattle (US) in LEO that was launched on Thu, 05 Oct 2023 UTC via an FALCON 9 launch vehicle from the Air Force Eastern Test Range (AFETR). Payload-class satellites include a variety of spacecraft equipped with specific instruments for various scientific and technological missions. These include communications satellites like Starlink; space stations such as the ISS; scientific satellites like the Hubble; Earth observation satellites from companies like Planet Labs, Umbra, and HawkEye 360; GPS; miniature CubeSats for education and research; and military/defense satellites.

Loading next visibility...
Identifier
58009, 2023-153U
Orbit
LEO
Country
Flag of USUS
Related business
Manufacturer
SpaceX/Seattle
Mission
Operational Commercial Communications
Bus & Motor
STARLINK V2M, Unknown motor
Mass
730 kg wet, ~700 kg dry
Launch date (UTC)
2023-10-05 (3 years ago)
Launch vehicle
FALCON 9
Launch site
Air Force Eastern Test Range (AFETR)
Object type
Payload
Rocket body
Debris
Shape & HBR
Box + 2 Pan, 17.7 m
Radar Cross Section
33.884 m², Large (>1 m²)

Expand to show TLE details & history
Last TLE update: 2 days ago

TLE from 2 days ago
0 STARLINK-30486
1 58009U 23153U   26171.37841584 -.00000335  00000-0 -26618-5 0  9994
2 58009  43.0003 206.9102 0001402 267.6303  92.4388 15.27576361150506
Epoch: 2026-06-20T09:04Z
TLE epoch observation values (Epoch: 2026-06-20T09:04:55.128Z)
Latitude
-0.00003°
Longitude
162.08657°
Altitude
482.877 km
Speed
7.626 km/s
True Right ascension
13h 47m 38s
True Declination
0° 00' 00"
Sunlit
Object was in full shadow at epoch
Visualization orbit readout
Latitude
Unknown
Longitude
Unknown
Altitude
Unknown
Speed
Unknown
Apparent Right ascension
Unknown
Apparent Declination
Unknown
Sunlit
N/A
Visualization observer readout
Local Sidereal Time
21:24:55
Azimuth
Unknown
Elevation
Unknown
Doppler factor
Unknown
Orbital elements
Apogee altitude
485.967 km
Perigee altitude
484.043 km
Semi-major axis
6,863.142 km
Eccentricity
0.00014
Inclination
43.0003°
RAAN
206.9102°
Arg. of periapsis
267.6303°
True anomaly
92.45485°
Mean anomaly
92.4388°
Eccentric anomaly
92.44683°
Mean motion
3.81732 °/min
Orbital period
94.31 mins
BSTAR
-0.0000026618
Loading maneuver chart data...
Computing Atmospheric mass density...
Loading historical data...
Loading historical data...
Loading historical data...
Loading historical data...
Loading historical data...
Loading historical data...
Loading historical data...

Documentation

Showing up to 5 results
|